QB50P2 (40032 NORAD) Tracking and Keplerian Element Data

This shows tracking and keplerian element data for the satellite.

Feedback or suggestion? Click here.




ElementValue
Catalog40032
NameQB50P2
Epoch Orbit57743
Epoch Day34.81576829
Epoch Year2025
RAAN0.7734
Inclination98.0309
Eccentricity0.0011368
Argument of Perigee71.4372
Mean Anonmoly288.8087
Mean Motion15.05172652
Decay Rate0.00012509
L11 40032U 14033Y 25034.81576829 .00012509 00000+0 87993-3 0 9995
L22 40032 98.0309 0.7734 0011368 71.4372 288.8087 15.05172652577435



Live tracking and technical data element details for QB50P2 (NORAD 40032). QB50P2 can be tracked NOW for your location showing map with azimuth and elevation plus other details from your city location.







IsCatalogInMostPopularTable: catalog: 40032, numindb: 366
Update: records affected: 1



GetName: 40032 QB50P2

Hit Count: updated at: Thu, 15 May 2025 10:06:13 GMT